Weather History for El Paso, TX

Change the Weather History Date:

Sunday, March 23, 2014

  Actual Average Record
Temperature  
Mean Temperature 57 °F 58 °F  
Max Temperature 67 °F 72 °F 86 °F (1990)
Min Temperature 47 °F 44 °F 24 °F (1897)
Degree Days  
Heating Degree Days 8 7  
Month to date heating degree days 157 220  
Since 1 July heating degree days 1945 2323  
Cooling Degree Days 0 0  
Month to date cooling degree days 8 0  
Year to date cooling degree days 15 0  
Growing Degree Days 6 (Base 50)    
Moisture  
Dew Point 23 °F    
Average Humidity 30    
Maximum Humidity 42    
Minimum Humidity 17    
Precipitation  
Precipitation 0.00 in 0.01 in 0.28 in (1919)
Month to date precipitation 0.18 0.20  
Year to date precipitation 0.18 1.06  
Snow  
Snow 0.00 in - - ()
Month to date snowfall 0.0  
Since 1 July snowfall T  
Snow Depth 0.00 in    
Sea Level Pressure  
Sea Level Pressure 30.00 in    
Wind  
Wind Speed 7 mph (East)    
Max Wind Speed 21 mph    
Max Gust Speed 27 mph    
Visibility 10 miles    
Events      
T = Trace of Precipitation, MM = Missing Value Source: NWS Daily Summary

Daily Weather History Graph

Daily Weather History Graph

Search for Another Location

Airport:

Trip Planner

Search our weather history database for the weather conditions in past years. The results will help you decide how hot, cold, wet, or windy it might be!

Date:

Astronomy

Mar. 23, 2014 Rise Set
Actual Time 7:05 AM MDT 7:19 PM MDT
Civil Twilight 6:41 AM MDT 7:43 PM MDT
Nautical Twilight 6:12 AM MDT 8:11 PM MDT
Astronomical Twilight 5:43 AM MDT 8:40 PM MDT
Moon 1:21 AM MDT (3/23) 12:06 PM MDT (3/23)
Length of Visible Light 13h 02m
Length of Day
12h 13m
Waning Gibbous, 54% of the Moon is Illuminated
Mar 23
Waning Gibbous
Mar 23
Last Quarter
Mar 30
New
Apr 7
First Quarter
Apr 15
Full

Hourly Weather History & Observations

Time (MDT) Temp. Dew Point Humidity Pressure Visibility Wind Dir Wind Speed Gust Speed Precip Events Conditions
12:51 AM 60.1 °F 16.0 °F 18% 29.89 in 10.0 mi WNW 4.6 mph - N/A   Partly Cloudy
1:51 AM 57.9 °F 14.0 °F 18% 29.90 in 10.0 mi Calm Calm - N/A   Partly Cloudy
2:51 AM 54.0 °F 14.0 °F 21% 29.90 in 10.0 mi ENE 5.8 mph - N/A   Partly Cloudy
3:51 AM 54.0 °F 16.0 °F 22% 29.90 in 10.0 mi SW 3.5 mph - N/A   Clear
4:51 AM 52.0 °F 18.0 °F 26% 29.91 in 10.0 mi Calm Calm - N/A   Partly Cloudy
5:51 AM 48.0 °F 14.0 °F 26% 29.94 in 10.0 mi ESE 8.1 mph - N/A   Partly Cloudy
6:51 AM 48.0 °F 25.0 °F 41% 30.00 in 8.0 mi East 12.7 mph - N/A   Partly Cloudy
7:51 AM 48.0 °F 27.0 °F 44% 30.06 in 10.0 mi ENE 11.5 mph - N/A   Partly Cloudy
8:51 AM 48.9 °F 26.1 °F 41% 30.12 in 10.0 mi ENE 15.0 mph - N/A   Partly Cloudy
9:51 AM 51.1 °F 26.1 °F 38% 30.13 in 10.0 mi East 11.5 mph - N/A   Partly Cloudy
10:51 AM 54.0 °F 28.0 °F 37% 30.13 in 10.0 mi Variable 3.5 mph - N/A   Clear
11:51 AM 57.9 °F 28.0 °F 32% 30.10 in 10.0 mi East 11.5 mph - N/A   Clear
12:51 PM 60.1 °F 27.0 °F 28% 30.08 in 10.0 mi ESE 8.1 mph - N/A   Clear
1:51 PM 62.1 °F 26.1 °F 25% 30.05 in 10.0 mi East 6.9 mph - N/A   Partly Cloudy
2:51 PM 64.0 °F 25.0 °F 23% 30.01 in 10.0 mi SE 9.2 mph - N/A   Partly Cloudy
3:51 PM 64.9 °F 24.1 °F 21% 29.98 in 10.0 mi ESE 9.2 mph - N/A   Scattered Clouds
4:51 PM 66.0 °F 24.1 °F 20% 29.96 in 10.0 mi ESE 8.1 mph - N/A   Mostly Cloudy
5:51 PM 64.9 °F 23.0 °F 20% 29.97 in 10.0 mi East 6.9 mph - N/A   Mostly Cloudy
6:51 PM 64.0 °F 23.0 °F 21% 29.98 in 10.0 mi East 10.4 mph - N/A   Mostly Cloudy
7:51 PM 61.0 °F 21.9 °F 22% 29.99 in 10.0 mi ESE 9.2 mph - N/A   Mostly Cloudy
8:51 PM 57.9 °F 23.0 °F 26% 30.00 in 10.0 mi East 9.2 mph - N/A   Mostly Cloudy
9:51 PM 55.9 °F 25.0 °F 30% 30.02 in 10.0 mi East 4.6 mph - N/A   Mostly Cloudy
10:51 PM 54.0 °F 25.0 °F 33% 30.02 in 10.0 mi Calm Calm - N/A   Scattered Clouds
11:51 PM 52.0 °F 25.0 °F 35% 30.01 in 10.0 mi SE 3.5 mph - N/A   Scattered Clouds